パンスターズ彗星

C/2022 N2 ( PanSTARRS )

English version
Home page
Updated on May 15, 2024

---------------------------------------------------------------------

・ プロフィール

発見日 2022年7月4日
発見光度 20.6等
発見者 Pan-STARRS 2 telescope (Haleakala)

・ 写真集

・ 軌道要素

Epoch 2024 Mar. 31.0 TT = JDT 2460400.5
T 2025 July 31.60964 TT                                 Rudenko
q   3.8261566            (2000.0)            P               Q
z  -0.0009682      Peri.   75.36338     +0.81523689     -0.57580247
 +/-0.0000045      Node   319.73975     +0.48757098     +0.74015528
e   1.0037043      Incl.    5.50260     +0.31251138     +0.34730632
>From 280 observations 2022 June 2-2024 May 9, mean residual 0".4.

・ 星図

・ 光度変化

        m1 = 5.0 + 5 logΔ + 10.0 log r

---------------------------------------------------------------------

軌道要素はM.P.E.C. 2024-J304に掲載されたものです。
星図はステラナビゲータ Ver.10 (アストロアーツ) で作成したものです。
光度グラフはComet for Windowsで作成したものです。

---------------------------------------------------------------------

Copyright(C) Seiichi Yoshida (comet@aerith.net). All rights reserved.